Regional Weather Roundup
Issued by NWS

Home | Current Version | Previous Version | Graphics & Text | Print | Product List | Glossary On
Versions: 1 2 3 4 5 6 7 8 9 10 11 12 13 14 15 16 17 18 19 20 21 22 23 24 25 26 27 28 29 30 31 32 33 34 35 36 37 38 39 40 41 42 43 44 45 46 47 48 49 50
000
ASUS43 KFSD 170610
RWRSD

WEATHER ROUNDUP FOR SOUTH DAKOTA
NATIONAL WEATHER SERVICE SIOUX FALLS SD
100 AM CDT WED SEP 17 2014

NOTE: "FAIR" INDICATES FEW OR NO CLOUDS BELOW 12,000 FEET WITH NO
SIGNIFICANT WEATHER AND/OR OBSTRUCTIONS TO VISIBILITY.


SDZ001>005-009-010-012>017-170700-
NORTHWEST AND NORTH CENTRAL SOUTH DAKOTA

CITY           SKY/WX    TMP DP  RH WIND       PRES   REMARKS
BUFFALO          N/A     56  45  66 NE10      29.88S
FAITH            N/A     59  50  72 SE10      29.92S
MOBRIDGE       MOCLDY    56  51  84 E8        29.88S
$$

SDZ012>016-024>037-041>051-057-063-072>074-170700-
SOUTHWEST AND SOUTH CENTRAL SOUTH DAKOTA

CITY           SKY/WX    TMP DP  RH WIND       PRES   REMARKS
RAPID CTY ARPT CLEAR     58  46  64 CALM      29.96S
PIERRE         CLEAR     57  51  80 SW5       29.88F
CUSTER         CLEAR     50  40  68 NW5       30.10F
ELLSWORTH AFB  CLEAR     58  48  69 W8        29.95F
PHILIP         CLEAR     51  48  89 NW3       29.91F
PINE RIDGE     CLEAR     51  47  86 CALM      29.98F
WINNER         FAIR      63  57  81 SW10      29.92R
$$

SDZ004>011-016>023-039-040-170700-
NORTHEAST SOUTH DAKOTA

CITY           SKY/WX    TMP DP  RH WIND       PRES   REMARKS
ABERDEEN       CLEAR     48  47  96 CALM      29.91S
WATERTOWN      PTCLDY    55  50  83 S8        29.93F
SISSETON         N/A     54  52  93 SE6       29.91S
$$

SDZ017-020-022-023-036>040-048>070-170700-
SOUTHEAST SOUTH DAKOTA

CITY           SKY/WX    TMP DP  RH WIND       PRES   REMARKS
SIOUX FALLS    CLOUDY    60  49  66 S6        29.96S
HURON          MOCLDY    56  51  84 S9        29.90F
CHAMBERLAIN    CLEAR     54  53  97 CALM      29.89F
MITCHELL       MOCLDY    55  52  89 SE8       29.91F
YANKTON        PTCLDY    55  48  76 S7        29.95F
$$

ABBREVIATIONS USED IN REMARKS
   TC - TEMPERATURE IN CELSIUS
  WCI - WIND CHILL INDEX
   HX - HEAT INDEX
  VSB - VISIBILITY



USA.gov is the U.S. government's official web portal to all federal, state and local government web resources and services.